Location: Unspecified
(0.0000°N, 0.0000°E)
Time: 16:44:44
(UTC+00:00)

Cosmos 2058 - Pass Details

Date: 23 April 2019
Orbit: 561 x 585 km, 82.5° (Epoch: 18 May)

Event Time Altitude Azimuth Distance (km) Brightness Sun altitude
Rises 18:28:04 0° 15° (NNE) 2,736 6.4 -7.2°
Reaches altitude 10° 18:30:28 10° 28° (NNE) 1,843 5.4 -7.8°
Maximum altitude 18:33:55 27° 86° (E) 1,091 3.8 -8.7°
Drops below altitude 10° 18:37:24 10° 145° (SE) 1,851 5.1 -9.5°
Sets 18:39:49 0° 157° (SSE) 2,751 6.0 -10.1°
